Hattiesburg, MS

6:43 PM CDT on May 23, 2017 (GMT -0500)
Chain Municipal

Weather History for KHBG - January, 2011

Change the Weather History Date:

Sunday, January 23, 2011

  Actual Average Record
Temperature  
Mean Temperature 41 °F 48 °F  
Max Temperature 59 °F 60 °F 80 °F (1949)
Min Temperature 22 °F 37 °F 17 °F (1985)
Degree Days  
Heating Degree Days 24 17  
Month to date heating degree days 468 384  
Since 1 July heating degree days 1315 1169  
Cooling Degree Days 0 0  
Month to date cooling degree days 0 0  
Year to date cooling degree days 0 0  
Moisture  
Dew Point 27 °F    
Average Humidity 59    
Maximum Humidity 92    
Minimum Humidity 26    
Precipitation  
Precipitation 0.00 in 0.20 in 3.81 in (1965)
Month to date precipitation 3.11 4.14  
Year to date precipitation 3.11 4.14  
Sea Level Pressure  
Sea Level Pressure 30.15 in    
Wind  
Wind Speed 3 mph (South)    
Max Wind Speed 13 mph    
Max Gust Speed 16 mph    
Visibility 10 miles    
Events      
T = Trace of Precipitation, MM = Missing Value Source: NWS Daily Summary

Daily Weather History Graph

Daily Weather History Graph

Search for Another Location

Airport or City:

Trip Planner

Search our weather history database for the weather conditions in past years. The results will help you decide how hot, cold, wet, or windy it might be!

Date:

Astronomy

Jan. 23, 2011 Rise Set
Actual Time 6:54 AM CST 5:23 PM CST
Civil Twilight 6:28 AM CST 5:49 PM CST
Nautical Twilight 5:58 AM CST 6:19 PM CST
Astronomical Twilight 5:29 AM CST 6:48 PM CST
Moon 10:00 PM CST 9:12 AM CST
Length of Visible Light 11h 21m
Length of Day
10h 29m
Waning Gibbous, 80% of the Moon is Illuminated
Jan 23
Waning Gibbous
Jan 26
Last Quarter
Feb 2
New
Feb 11
First Quarter
Feb 18
Full

Hourly Weather History & Observations

Time (CST) Temp. Windchill Dew Point Humidity Pressure Visibility Wind Dir Wind Speed Gust Speed Precip Events Conditions
12:53 AM 27.0 °F - 24.1 °F 89% 30.12 in 10.0 mi Calm Calm - N/A   Clear
1:53 AM 26.1 °F - 23.0 °F 88% 30.14 in 10.0 mi Calm Calm - N/A   Clear
2:53 AM 25.0 °F - 21.9 °F 88% 30.14 in 10.0 mi Calm Calm - N/A   Clear
3:53 AM 24.1 °F - 21.0 °F 88% 30.13 in 10.0 mi Calm Calm - N/A   Clear
4:53 AM 23.0 °F - 19.9 °F 88% 30.13 in 10.0 mi Calm Calm - N/A   Clear
6:53 AM 23.0 °F - 19.9 °F 88% 30.17 in 10.0 mi Calm Calm - N/A   Clear
7:53 AM 26.1 °F - 21.9 °F 84% 30.19 in 10.0 mi Calm Calm - N/A   Clear
8:53 AM 33.1 °F - 28.0 °F 82% 30.21 in 10.0 mi Calm Calm - N/A   Clear
9:53 AM 42.1 °F - 28.0 °F 58% 30.21 in 10.0 mi Calm Calm - N/A   Clear
10:53 AM 50.0 °F - 25.0 °F 38% 30.19 in 10.0 mi ESE 5.8 mph - N/A   Clear
11:53 AM 54.0 °F - 21.9 °F 29% 30.17 in 10.0 mi SE 9.2 mph - N/A   Clear
12:53 PM 55.0 °F - 21.9 °F 28% 30.14 in 10.0 mi South 4.6 mph - N/A   Clear
1:53 PM 57.0 °F - 25.0 °F 29% 30.12 in 10.0 mi SSW 8.1 mph - N/A   Clear
2:53 PM 57.9 °F - 25.0 °F 28% 30.11 in 10.0 mi SSE 10.4 mph - N/A   Clear
3:53 PM 59.0 °F - 27.0 °F 29% 30.10 in 10.0 mi SE 6.9 mph - N/A   Clear
4:53 PM 55.9 °F - 28.9 °F 36% 30.11 in 10.0 mi South 3.5 mph - N/A   Clear
5:53 PM 46.9 °F - 32.0 °F 56% 30.12 in 10.0 mi South 4.6 mph - N/A   Clear
6:53 PM 48.9 °F - 35.1 °F 59% 30.15 in 10.0 mi SSW 4.6 mph - N/A   Clear
7:53 PM 46.0 °F 43.9 °F 36.0 °F 68% 30.16 in 10.0 mi South 4.6 mph - N/A   Clear
8:53 PM 39.0 °F 35.7 °F 34.0 °F 82% 30.16 in 10.0 mi South 4.6 mph - N/A   Clear
9:53 PM 41.0 °F - 36.0 °F 82% 30.17 in 10.0 mi Calm Calm - N/A   Clear
10:53 PM 37.0 °F - 33.1 °F 86% 30.17 in 10.0 mi Calm Calm - N/A   Clear
11:53 PM 36.0 °F - 33.1 °F 89% 30.16 in 10.0 mi Calm Calm - N/A   Clear